Overview Statistics Trail Chart Weather Telemetry Raw packets
 

This is the latest recevied weather packets stored in our database for station/object N5DGC. If no packets are shown the sender has not sent any weather packets the latest 10 day(s).

<< 21 22 23 24 25 26 27 >>
Time Temp. Humidity Pressure Rain* Wind** Luminosity Snow
1788461455 31.67° C 24% 1240 hPa 0 mm - 206 W/m² -
1788461152 32.78° C 22% 1239.8 hPa 0 mm - 511 W/m² -
1788460847 32.78° C 23% 1240.2 hPa 0 mm - 1042 W/m² -
1788460545 31.67° C 24% 1240.3 hPa 0 mm - 971 W/m² -
1788460241 32.22° C 23% 1240.4 hPa 0 mm - 1015 W/m² -
1788459939 31.11° C 24% 1240.4 hPa 0 mm - 1001 W/m² -
1788459636 31.11° C 25% 1240.5 hPa 0 mm - 1055 W/m² -
1788459334 31.11° C 25% 1240.5 hPa 0 mm - 1100 W/m² -
1788459034 31.11° C 25% 1240.7 hPa 0 mm - 365 W/m² -
1788458730 31.67° C 24% 1240.8 hPa 0 mm - 295 W/m² -
1788458429 31.11° C 24% 1240.8 hPa 0 mm - 1038 W/m² -
1788458128 31.11° C 26% 1240.9 hPa 0 mm - 747 W/m² -
1788457856 31.11° C 24% 1240.9 hPa 0 mm - 511 W/m² -
1788457522 30.56° C 25% 1241.1 hPa 0 mm - 355 W/m² -
1788457217 31.11° C 24% 1241 hPa 0 mm - 674 W/m² -
1788456912 31.11° C 25% 1241 hPa 0 mm - 860 W/m² -
1788456609 29.44° C 26% 1241.1 hPa 0 mm - 836 W/m² -
1788456303 28.89° C 27% 1241.2 hPa 0 mm - 817 W/m² -
1788455999 29.44° C 26% 1241.2 hPa 0 mm - 815 W/m² -
1788455693 29.44° C 28% 1241.1 hPa 0 mm - 794 W/m² -
1788455388 29.44° C 27% 1241.1 hPa 0 mm - 791 W/m² -
1788455083 28.89° C 27% 1241 hPa 0 mm - 771 W/m² -
1788454782 29.44° C 28% 1241 hPa 0 mm - 756 W/m² -
1788454481 28.89° C 28% 1241 hPa 0 mm - 754 W/m² -
1788454176 28.89° C 28% 1241.1 hPa 0 mm - 780 W/m² -

* Rain latest hour (hover to see other rain measurements)
** Current wind speed in m/s (hover to see current wind gust speed)